This is the latest recevied weather packets stored in our database for station/object N9NDF. If no packets are shown the sender has not sent any weather packets the latest 1 day(s).
| Time | Temp. | Humidity | Pressure | Rain* | Wind** | Luminosity | Snow |
|---|---|---|---|---|---|---|---|
| 1778107918 | 14.44° C | 40% | 993.3 hPa | 0 mm | - | 85 W/m² | - |
| 1778107738 | 14.44° C | 40% | 993.3 hPa | 0 mm | - | 96 W/m² | - |
| 1778107618 | 13.89° C | 41% | 993.3 hPa | 0 mm | - | 102 W/m² | - |
| 1778106898 | 14.44° C | 39% | 993.3 hPa | 0 mm | - | 167 W/m² | - |
| 1778106775 | 14.44° C | 39% | 993.3 hPa | 0 mm | - | 162 W/m² | - |
| 1778106116 | 15° C | 40% | 993.2 hPa | 0 mm | - | 145 W/m² | - |
| 1778105574 | 15° C | 39% | 992.9 hPa | 0 mm | - | 253 W/m² | - |
| 1778105145 | 15° C | 40% | 993.1 hPa | 0 mm | - | 226 W/m² | - |
| 1778104965 | 15° C | 39% | 993 hPa | 0 mm | - | 113 W/m² | - |
| 1778104786 | 15° C | 40% | 993 hPa | 0 mm | - | 131 W/m² | - |
| 1778104422 | 15° C | 40% | 992.9 hPa | 0 mm | - | 147 W/m² | - |
| 1778104303 | 15° C | 39% | 992.9 hPa | 0 mm | - | 205 W/m² | - |
| 1778104243 | 15° C | 39% | 992.9 hPa | 0 mm | - | 276 W/m² | - |
| 1778104064 | 15.56° C | 38% | 992.9 hPa | 0 mm | - | 370 W/m² | - |
| 1778103463 | 15.56° C | 38% | 993.1 hPa | 0 mm | - | 375 W/m² | - |
| 1778103283 | 15.56° C | 39% | 993.1 hPa | 0 mm | - | 337 W/m² | - |
| 1778103223 | 15.56° C | 38% | 993.1 hPa | 0 mm | - | 363 W/m² | - |
| 1778102794 | 16.11° C | 37% | 993.2 hPa | 0 mm | - | 476 W/m² | - |
| 1778102308 | 15.56° C | 38% | 993.1 hPa | 0 mm | - | 613 W/m² | - |
| 1778102126 | 15.56° C | 38% | 993.2 hPa | 0 mm | - | 635 W/m² | - |
| 1778101882 | 15.56° C | 39% | 993.3 hPa | 0 mm | - | 539 W/m² | - |
| 1778101699 | 15.56° C | 38% | 993.3 hPa | 0 mm | - | 556 W/m² | - |
| 1778101519 | 15.56° C | 39% | 993.2 hPa | 0 mm | - | 575 W/m² | - |
| 1778101033 | 15° C | 41% | 993.4 hPa | 0 mm | - | 495 W/m² | - |
| 1778100674 | 14.44° C | 39% | 993.4 hPa | 0 mm | - | 562 W/m² | - |
* Rain latest hour (hover to see other rain measurements)
** Current wind speed in m/s (hover to see current wind gust speed)